{"data":{"norad_id":63133,"intl_designator":"2025-043B","name":"STARLINK-11604 [DTC]","alt_names":[],"object_type":"PAYLOAD","status":"ACTIVE","operator":null,"country":"US","launch_date":"2025-03-03","launch_site_code":"AFETR","launch_vehicle":null,"mission":null,"orbit_class":"UNKNOWN","rcs_meters":null,"size_class":null,"mass_kg":null,"dimensions":null,"purposes":["comms"],"wikipedia_slug":null,"has_3d_model":false,"image_url":null,"decayed_at":null,"tle_current":{"epoch":"2026-05-25T05:15:08.788608Z","epoch_age_seconds":50040,"freshness":"FRESH","line1":"1 63133U 25043B   26145.21885172  .00163833  00000+0  12553-2 0  9993","line2":"2 63133  42.9994 149.8294 0002060 289.8780  70.1866 15.70839254 71383","mean_motion":15.70839254,"eccentricity":0.000206,"inclination_deg":42.9994,"raan_deg":149.8294,"arg_perigee_deg":289.878,"mean_anomaly_deg":70.1866,"bstar":0.0012553,"rev_number":7138,"period_min":91.670742014701,"perigee_km":355.1098591331,"apogee_km":357.88452842094,"semimajor_km":6734.634193777,"source":"CELESTRAK","updated_at":"2026-05-25T13:38:19.913612Z"}}}